Location: Valdosta
(30.8330°N, 83.2790°W)
Time: 23:13:59
(UTC-04:00)

Daily predictions for brighter satellites

Satellite Brightness Start Highest point End
(mag) Time Altitude Azimuth Time Altitude Azimuth Time Altitude Azimuth
Milstar 3 4.1 19:18:33 10° W 19:27:00 79° S 19:43:26 10° E
ATLAS CENTAUR R/B 2.9 19:25:05 10° SW 19:28:39 86° NW 19:39:04 10° NE
NOSS 3-2 (C) 3.8 19:31:11 10° SW 19:37:08 74° WNW 19:43:33 10° NNE
Cosmos 192 4.4 19:33:43 10° SSW 19:38:40 86° ESE 19:43:38 10° NNE
Cosmos 1484 Rocket 2.8 19:37:38 10° SSE 19:41:21 55° ENE 19:45:10 10° N
Cosmos 1758 4.1 19:40:40 10° SSE 19:44:17 32° E 19:47:56 10° NNE
ISS -3.3 19:46:52 10° SW 19:50:06 88° WNW 19:53:22 10° NE
Cosmos 1269 Rocket 4.4 19:48:59 10° S 19:53:52 40° E 19:58:46 10° NNE
Cosmos 1544 4.1 19:50:50 10° SSE 19:53:55 25° E 19:57:01 10° NE
ASC 2 Rocket 4.4 19:52:09 10° WSW 19:56:30 30° SSW 20:00:09 10° SE
SL-8 R/B 4.3 19:53:13 10° WSW 19:57:55 58° NW 20:02:38 10° NE
SL-16 R/B 3.8 19:54:17 10° SW 19:59:34 39° WNW 20:04:53 10° N
Okean 3 Rocket 4.0 19:55:18 10° N 19:59:50 73° W 20:04:20 10° S
SAR-Lupe-4 3.6 19:57:04 10° SSE 20:00:33 56° ENE 20:04:03 10° N
Timation 1 Rocket 4.3 19:55:36 10° NNW 20:01:31 64° ENE 20:07:25 10° SSE
Cosmos 1766 4.2 19:58:09 10° SSW 20:02:00 54° W 20:05:55 10° N
Cosmos 2056 Rocket 3.9 19:57:36 10° NNW 20:03:01 71° WSW 20:08:22 10° S
Resurs 01 Rocket 2.5 19:59:49 10° SE 20:03:37 28° ENE 20:07:25 10° NNE
HJ-1C 4.4 20:04:35 10° SE 20:07:25 26° ENE 20:10:16 10° NNE
Atlas Centaur 2 3.7 20:02:00 10° W 20:10:15 54° SSW 20:18:09 10° SE
Cosmos 1378 3.4 20:06:51 10° N 20:10:34 70° W 20:14:15 10° S
USA 215 3.2 20:10:24 10° NE 20:16:58 87° SE 20:23:30 10° SW
Meteor 2-12 Rocket 4.4 20:11:42 10° S 20:17:48 71° E 20:23:55 10° N
FREGAT/IRIS 2.5 20:17:32 10° SSE 20:20:36 72° ENE 20:23:41 10° N
Meteor 1-28 Rocket 4.2 20:21:38 10° N 20:25:12 48° WNW 20:28:46 10° SSW
Helios 1B rocket 2.3 20:22:34 10° NNE 20:26:42 79° ESE 20:30:48 10° S
Nadezhda 4 Rocket 4.2 20:20:58 10° N 20:26:58 48° E 20:32:53 10° SSE
Cosmos 1805 3.9 20:25:20 10° SSW 20:29:11 59° W 20:33:05 10° N
SeaSat 1 3.4 20:34:29 26° ESE 20:34:29 26° ESE 20:38:05 10° SSE
Gbstr 26 Del rocket 3.4 20:30:56 10° SW 20:35:05 68° NW 20:39:48 12° NE
GPS 2-04 Rocket1 3.1 20:32:01 10° W 20:35:22 46° N 20:36:40 30° NE
Cosmos 1092 Rocket 4.3 20:30:10 10° NNE 20:35:56 40° E 20:40:09 17° SE
Cosmos 1346 3.1 20:33:27 10° N 20:36:08 53° ENE 20:36:08 53° ENE
Cosmos 1953 3.4 20:32:53 10° SSW 20:36:43 46° W 20:40:33 10° N
NOAA 12 4.4 20:33:36 10° S 20:38:48 67° WSW 20:44:04 10° NNW
Cosmos 1943 3.1 20:35:19 10° S 20:40:53 65° ESE 20:46:27 10° NNE
Cosmos 1766 Rocket 4.2 20:37:40 10° NNW 20:41:56 57° W 20:46:10 10° S
Meteor 1-29 3.3 20:40:52 10° N 20:44:21 68° WNW 20:47:47 10° SSW
Cosmos-2242 4.2 20:40:46 10° SSW 20:44:56 45° W 20:49:10 10° N
Cosmos 2369 Rocket 3.2 20:40:38 10° N 20:45:20 27° ENE 20:45:20 27° ENE
Cosmos 1634 Rocket 4.1 20:39:45 10° SSE 20:45:43 49° E 20:51:40 10° NNE
Delta 168 4.0 20:42:36 10° WSW 20:46:57 48° S 20:49:08 33° SE
Cosmos 1733 3.0 20:47:53 10° S 20:51:45 71° E 20:55:35 10° N
Cosmos 1470 2.7 20:49:48 10° S 20:53:41 85° W 20:57:34 10° N
SEDSat Delta rocket 4.0 20:48:30 10° W 20:55:11 87° S 20:57:50 41° ESE
OAO 3 Rocket 3.3 20:51:43 10° WNW 20:56:26 61° N 20:57:20 50° ENE
Cosmos 2251 Rocket 4.3 20:52:10 10° S 21:04:31 - NNE 20:55:16 32° SSE
Cosmos 1452 Rocket 4.4 20:54:15 10° NNW 20:59:18 49° WSW 21:04:19 10° S
Cosmos 1674 3.1 21:03:11 10° N 21:06:20 57° NNW 21:06:20 57° NNW
ASTEX 1 3.4 21:02:18 10° N 21:07:12 80° W 21:12:04 10° S
Cosmos 1842 Rocket 4.2 21:05:02 10° SSW 21:09:14 53° W 21:13:29 10° N
ASTRO E2 3.4 21:09:03 10° W 21:12:23 48° SW 21:12:23 48° SW
Cosmos 1500 Rocket 3.6 21:10:09 10° N 21:14:36 77° W 21:14:49 75° SW
CENTAUR R/B 3.1 21:10:47 10° SW 21:16:31 52° WNW 21:22:55 10° NNE
Cosmos 1420 Rocket 4.4 21:14:15 10° NNW 21:19:29 61° WSW 21:21:43 33° S
ALOS 2.5 21:20:32 54° SSW 21:21:20 65° W 21:25:59 10° NNW
Meteosat 1 Rocket2 3.9 21:25:51 10° WSW 21:31:33 57° SW 21:31:33 57° SW
Cosmos 1627 Rocket 4.4 21:32:05 10° N 21:37:44 74° N 21:37:44 74° N
Resurs 01 Rocket 4.2 21:36:51 10° SW 21:40:01 19° W 21:43:13 10° NW
Cosmos 1943 Rocket 4.5 22:19:58 10° NNW 22:21:10 17° NNW 22:21:10 17° NNW
Cosmos 2369 Rocket 4.2 22:24:21 10° NW 22:27:10 24° WNW 22:27:10 24° WNW
